EST,Max TemperatureF,Mean TemperatureF,Min TemperatureF,Max Dew PointF,MeanDew PointF,Min DewpointF,Max Humidity, Mean Humidity, Min Humidity, Max Sea Level PressureIn, Mean Sea Level PressureIn, Min Sea Level PressureIn, Max VisibilityMiles, Mean VisibilityMiles, Min VisibilityMiles, Max Wind SpeedMPH, Mean Wind SpeedMPH, Max Gust SpeedMPH,PrecipitationIn, CloudCover, Events, WindDirDegrees
2012-12-1,36,27,18,30,21,10,92,77,62,30.54,30.48,30.39,10,9,3,25,15,32,0.00,8,,130
2012-12-2,54,45,36,46,38,30,92,76,59,30.39,30.15,29.98,10,9,4,17,11,23,0.21,7,,134
2012-12-3,50,43,36,45,38,34,92,82,71,30.26,30.16,29.98,10,10,10,12,6,20,0.00,7,,307
2012-12-4,55,45,34,52,41,30,96,84,71,30.25,30.10,29.85,10,10,8,20,13,24,0.00,4,,134
2012-12-5,55,41,27,52,30,14,100,77,54,30.20,29.99,29.82,10,10,7,17,9,24,0.11,8,,310
2012-12-6,30,27,23,19,16,12,88,71,53,30.36,30.27,30.20,10,10,10,13,7,23,0.00,3,,332
2012-12-7,37,31,25,32,23,16,100,74,48,30.20,30.08,30.02,10,9,2,12,5,,0.01,5,,148
2012-12-8,48,39,30,43,36,30,100,90,79,30.00,29.90,29.80,10,8,1,13,5,20,0.03,8,,159
2012-12-9,45,38,30,39,28,25,89,77,64,30.27,30.18,29.96,10,10,10,14,7,20,0.01,5,,336
2012-12-10,54,45,36,50,40,30,96,89,82,30.03,29.67,29.47,10,10,4,21,11,31,0.37,8,,147
2012-12-11,39,34,28,36,27,19,92,78,63,30.15,29.89,29.60,10,10,9,9,6,,0.02,8,,331
2012-12-12,37,30,23,25,21,18,88,72,56,30.38,30.29,30.16,10,10,10,9,4,,0.00,5,,203
2012-12-13,37,30,23,25,22,19,88,70,52,30.44,30.37,30.25,10,10,10,8,4,,0.00,1,,127
2012-12-14,39,30,21,27,23,19,92,70,48,30.23,30.14,30.08,10,10,10,10,7,17,0.00,4,,231
2012-12-15,36,28,19,27,18,12,84,69,53,30.34,30.28,30.18,10,10,10,10,6,,0.00,3,,350
2012-12-16,30,25,19,25,19,9,81,64,46,30.24,30.11,29.98,10,10,5,25,15,31,0.00,7,,142
2012-12-17,36,32,27,34,26,21,92,84,75,29.99,29.91,29.75,10,10,2,21,14,36,0.10,8,,168
2012-12-18,43,40,36,37,36,32,100,93,85,29.74,29.51,29.43,10,9,2,21,8,29,0.20,8,,132
2012-12-19,37,36,34,36,31,27,100,88,75,30.08,29.76,29.51,10,10,5,9,5,16,0.01,8,,327
2012-12-20,34,31,27,30,27,25,100,85,69,30.21,30.09,29.91,10,10,2,22,7,28,0.00,6,,114
2012-12-21,46,38,30,43,32,27,92,81,70,29.89,29.30,28.94,10,8,2,39,19,55,0.18,8,,160
2012-12-22,36,29,21,28,20,10,88,74,59,29.68,29.39,29.14,10,7,1,17,12,27,0.01,7,,265
2012-12-23,32,27,21,25,16,10,72,64,55,29.80,29.77,29.68,10,10,9,14,6,22,0.00,7,,255
2012-12-24,32,27,21,25,16,10,92,71,50,30.06,29.98,29.81,10,10,5,13,7,24,0.00,2,,318
2012-12-25,23,17,10,19,15,7,92,82,71,30.29,30.11,29.97,10,9,1,9,4,,0.00,4,,351
2012-12-26,28,18,7,23,11,1,92,78,63,30.35,30.18,29.87,10,9,2,13,4,27,0.00,3,,32
2012-12-27,30,26,21,28,22,18,100,88,75,29.85,29.64,29.53,10,3,0,13,9,35,0.07,8,,343
2012-12-28,28,24,19,23,19,16,92,83,74,30.02,29.94,29.76,10,9,3,13,7,20,0.03,7,,324
2012-12-29,27,22,16,23,19,14,100,92,84,30.01,29.79,29.55,10,5,0,8,3,,0.10,8,,70
2012-12-30,19,14,9,18,10,3,100,81,61,30.05,29.81,29.55,10,8,2,14,7,18,0.01,5,,318
2012-12-31,30,20,10,23,16,3,88,76,63,30.04,29.92,29.71,10,9,3,14,6,21,0.00,8,,250